Location: Arbon
(43.0005°N, 0.7472°E)
Time: 10:51:36
(UTC+00:00)

S-56A Canister/Altair - Visible Passes

Search period start: 20 June 2021 00:00
Search period end: 30 June 2021 00:00
Orbit: 632 x 2500 km, 38.9° (Epoch: 20 June)

Date Brightness Start Highest point End Pass type
(mag) Time Alt. Az. Time Alt. Az. Time Alt. Az.
22 Jun 8.4 03:24:56 10° SW 03:28:46 26° SSE 03:32:33 10° E visible
23 Jun 8.5 02:53:50 16° SSW 02:56:19 24° SSE 02:59:54 10° ESE visible
24 Jun 8.7 02:22:42 20° S 02:23:51 22° SSE 02:27:16 10° ESE visible
25 Jun 8.8 01:51:32 20° SSE 01:51:32 20° SSE 01:54:41 10° ESE visible
26 Jun 9.2 01:20:22 16° SE 01:20:22 16° SE 01:22:06 10° ESE visible
26 Jun 7.7 03:17:46 12° WSW 03:22:01 43° SSE 03:26:13 10° E visible
27 Jun 9.6 00:49:09 11° ESE 00:49:09 11° ESE 00:49:31 10° ESE visible
27 Jun 7.8 02:46:33 20° SW 02:49:33 41° SSE 02:53:44 10° E visible
28 Jun 7.9 02:15:19 29° SSW 02:17:05 39° SSE 02:21:17 10° E visible
29 Jun 8.0 01:44:02 36° S 01:44:34 37° SSE 01:48:52 10° E visible
29 Jun 7.4 03:43:09 10° WSW 03:47:53 52° S 03:52:11 10° ESE visible
